User: anonymous
Location: Gipe Farm
(40.9466°N, 95.5370°W)
Time: 05:41:07
(UTC-05:00)
Language:

Cosmos 2082 Rocket - Orbit

View from above orbital plane
View from above orbital plane
View from above satellite
View from above satellite

Ground track
Ground track

The orbit data is extracted from the following two-line orbital elements,

1 20625U 90046B   14204.45911659  .00000285  00000-0  17309-3 0  7698
2 20625 070.9973 213.1682 0016357 276.9756 235.0983 14.14526029247972
Epoch (UTC): 23 July 2014 11:01:07
Eccentricity: 0.0016357
inclination: 70.9973°
perigee height: 832 km
apogee height: 856 km
right ascension of ascending node: 213.1682°
argument of perigee: 276.9756°
revolutions per day: 14.14526029
mean anomaly at epoch: 235.0983°
orbit number at epoch: 24797

The dashed part of the orbit path shows where the satellite is in the earth's shadow,  

DLR